Time,TemperatureF,DewpointF,PressureIn,WindDirection,WindDirectionDegrees,WindSpeedMPH,WindSpeedGustMPH,Humidity,HourlyPrecipIn,Conditions,Clouds,dailyrainin,SoftwareType,DateUTC
2013-09-28 00:13:00,76.0,59.0,29.73,SSE,149,9.0,15.0,55,0.00,,,0.00,,2013-09-28 05:13:00,
2013-09-28 00:22:00,76.0,59.0,29.71,SE,138,14.0,21.0,55,0.00,,,0.00,,2013-09-28 05:22:00,
2013-09-28 00:53:00,76.0,59.0,29.72,SSE,149,12.0,20.0,56,0.00,,,0.00,,2013-09-28 05:53:00,
2013-09-28 01:13:00,76.0,60.0,29.71,South,171,11.0,19.0,57,0.00,,,0.00,,2013-09-28 06:13:00,
2013-09-28 01:22:00,76.0,60.0,29.71,SSE,160,9.0,17.0,57,0.00,,,0.00,,2013-09-28 06:22:00,
2013-09-28 01:52:00,77.0,62.0,29.70,SSE,155,12.0,22.0,60,0.00,,,0.00,,2013-09-28 06:52:00,
2013-09-28 02:12:00,77.0,63.0,29.69,SSE,166,17.0,26.0,61,0.00,,,0.00,,2013-09-28 07:12:00,
2013-09-28 02:22:00,77.0,63.0,29.69,SSE,167,13.0,27.0,63,0.00,,,0.00,,2013-09-28 07:22:00,
2013-09-28 02:52:00,76.0,66.0,29.69,SE,143,14.0,29.0,71,0.00,,,0.00,,2013-09-28 07:52:00,
2013-09-28 03:21:00,75.0,66.0,29.71,SSE,159,9.0,20.0,73,0.00,,,0.00,,2013-09-28 08:21:00,
2013-09-28 03:53:00,75.0,67.0,29.72,SSE,156,6.0,15.0,76,0.00,,,0.00,,2013-09-28 08:53:00,
2013-09-28 04:11:00,74.0,67.0,29.73,ESE,114,5.0,19.0,79,0.01,,,0.01,,2013-09-28 09:11:00,
2013-09-28 04:22:00,69.0,64.0,29.75,West,271,5.0,15.0,83,0.04,,,0.04,,2013-09-28 09:22:00,
2013-09-28 04:54:00,65.0,62.0,29.77,WNW,296,2.0,10.0,89,0.12,,,0.12,,2013-09-28 09:54:00,
2013-09-28 05:52:00,55.0,52.0,29.84,NW,326,6.0,14.0,89,0.15,,,0.27,,2013-09-28 10:52:00,
2013-09-28 06:12:00,55.0,52.0,29.85,NNW,336,4.0,16.0,90,0.11,,,0.27,,2013-09-28 11:12:00,
2013-09-28 06:22:00,55.0,52.0,29.87,NNW,344,6.0,16.0,90,0.04,,,0.27,,2013-09-28 11:22:00,
2013-09-28 06:52:00,54.0,51.0,29.88,WNW,289,6.0,12.0,90,0.06,,,0.33,,2013-09-28 11:52:00,
2013-09-28 07:12:00,54.0,51.0,29.88,NW,306,6.0,12.0,90,0.07,,,0.34,,2013-09-28 12:12:00,
2013-09-28 07:22:00,54.0,51.0,29.89,NW,326,5.0,12.0,90,0.08,,,0.35,,2013-09-28 12:22:00,
2013-09-28 07:52:00,54.0,51.0,29.91,NNW,334,3.0,12.0,90,0.02,,,0.35,,2013-09-28 12:52:00,
2013-09-28 08:12:00,54.0,51.0,29.93,North,355,6.0,11.0,89,0.01,,,0.35,,2013-09-28 13:12:00,
2013-09-28 08:22:00,53.0,50.0,29.94,NNW,340,3.0,14.0,89,0.00,,,0.35,,2013-09-28 13:22:00,
2013-09-28 08:52:00,53.0,50.0,29.96,NW,319,6.0,16.0,88,0.00,,,0.35,,2013-09-28 13:52:00,
2013-09-28 09:12:00,53.0,49.0,29.97,NW,321,6.0,13.0,87,0.00,,,0.35,,2013-09-28 14:12:00,
2013-09-28 09:21:00,53.0,49.0,29.97,NW,326,9.0,17.0,85,0.00,,,0.35,,2013-09-28 14:21:00,
2013-09-28 09:42:00,54.0,50.0,29.98,NNE,15,8.0,14.0,85,0.00,,,0.35,,2013-09-28 14:42:00,
2013-09-28 09:52:00,54.0,49.0,29.98,NNW,344,3.0,14.0,84,0.00,,,0.35,,2013-09-28 14:52:00,
2013-09-28 10:12:00,55.0,49.0,29.99,NNW,336,5.0,12.0,81,0.00,,,0.35,,2013-09-28 15:12:00,
2013-09-28 10:23:00,56.0,49.0,30.00,NW,311,5.0,14.0,78,0.00,,,0.35,,2013-09-28 15:23:00,
2013-09-28 10:54:00,59.0,50.0,30.02,NNW,334,6.0,15.0,71,0.00,,,0.35,,2013-09-28 15:54:00,
2013-09-28 11:14:00,58.0,50.0,30.03,NNE,32,5.0,13.0,74,0.00,,,0.35,,2013-09-28 16:14:00,
2013-09-28 11:24:00,60.0,51.0,30.03,NNW,342,4.0,13.0,72,0.00,,,0.35,,2013-09-28 16:24:00,
2013-09-28 11:43:00,60.0,49.0,30.04,NNW,334,7.0,13.0,66,0.00,,,0.35,,2013-09-28 16:43:00,
2013-09-28 11:54:00,61.0,49.0,30.04,NNW,348,7.0,13.0,64,0.00,,,0.35,,2013-09-28 16:54:00,
2013-09-28 12:13:00,61.0,49.0,30.05,NNW,329,6.0,11.0,65,0.00,,,0.35,,2013-09-28 17:13:00,
2013-09-28 12:23:00,61.0,49.0,30.05,NNW,340,4.0,12.0,64,0.00,,,0.35,,2013-09-28 17:23:00,
2013-09-28 12:52:00,63.0,49.0,30.05,North,351,4.0,10.0,60,0.00,,,0.35,,2013-09-28 17:52:00,
2013-09-28 13:12:00,65.0,48.0,30.05,WNW,297,6.0,12.0,54,0.00,,,0.35,,2013-09-28 18:12:00,
2013-09-28 13:22:00,66.0,49.0,30.05,NNW,333,5.0,15.0,55,0.00,,,0.35,,2013-09-28 18:22:00,
2013-09-28 13:42:00,66.0,49.0,30.05,NW,317,8.0,16.0,55,0.00,,,0.35,,2013-09-28 18:42:00,
2013-09-28 13:52:00,66.0,49.0,30.05,NNE,19,4.0,13.0,54,0.00,,,0.35,,2013-09-28 18:52:00,
2013-09-28 14:11:00,66.0,48.0,30.04,North,351,7.0,14.0,52,0.00,,,0.35,,2013-09-28 19:11:00,
2013-09-28 14:21:00,68.0,49.0,30.04,NW,313,6.0,12.0,51,0.00,,,0.35,,2013-09-28 19:21:00,
2013-09-28 14:52:00,69.0,47.0,30.03,NW,320,7.0,19.0,45,0.00,,,0.35,,2013-09-28 19:52:00,
2013-09-28 15:12:00,70.0,46.0,30.03,NNW,340,6.0,13.0,43,0.00,,,0.35,,2013-09-28 20:12:00,
2013-09-28 15:22:00,70.0,48.0,30.02,NW,318,6.0,15.0,45,0.00,,,0.35,,2013-09-28 20:22:00,
2013-09-28 15:43:00,71.0,48.0,30.02,NW,325,5.0,13.0,44,0.00,,,0.35,,2013-09-28 20:43:00,
2013-09-28 15:52:00,71.0,48.0,30.02,NNW,339,7.0,16.0,44,0.00,,,0.35,,2013-09-28 20:52:00,
2013-09-28 16:12:00,71.0,46.0,30.03,WNW,300,7.0,13.0,41,0.00,,,0.35,,2013-09-28 21:12:00,
2013-09-28 16:23:00,71.0,46.0,30.03,West,280,4.0,12.0,41,0.00,,,0.35,,2013-09-28 21:23:00,
2013-09-28 16:55:00,71.0,47.0,30.03,NW,325,4.0,15.0,42,0.00,,,0.35,,2013-09-28 21:55:00,
2013-09-28 17:13:00,71.0,46.0,30.03,NW,321,2.0,10.0,41,0.00,,,0.35,,2013-09-28 22:13:00,
2013-09-28 17:23:00,72.0,46.0,30.01,NW,326,1.0,9.0,40,0.00,,,0.35,,2013-09-28 22:23:00,
2013-09-28 17:43:00,71.0,46.0,30.01,NNW,331,1.0,12.0,41,0.00,,,0.35,,2013-09-28 22:43:00,
2013-09-28 17:54:00,71.0,46.0,30.01,NNW,329,5.0,15.0,41,0.00,,,0.35,,2013-09-28 22:54:00,
2013-09-28 18:12:00,70.0,45.0,30.01,North,11,3.0,8.0,41,0.00,,,0.35,,2013-09-28 23:12:00,
2013-09-28 18:22:00,70.0,46.0,30.01,North,351,1.0,11.0,42,0.00,,,0.35,,2013-09-28 23:22:00,
2013-09-28 18:52:00,68.0,45.0,30.03,NNW,334,3.0,7.0,43,0.00,,,0.35,,2013-09-28 23:52:00,
2013-09-28 19:11:00,67.0,46.0,30.03,North,350,2.0,5.0,46,0.00,,,0.35,,2013-09-29 00:11:00,
2013-09-28 19:22:00,66.0,47.0,30.03,NNW,328,0.0,4.0,50,0.00,,,0.35,,2013-09-29 00:22:00,
2013-09-28 19:43:00,63.0,47.0,30.03,NNW,327,0.0,0.0,56,0.00,,,0.35,,2013-09-29 00:43:00,
2013-09-28 19:52:00,61.0,47.0,30.04,NNW,327,0.0,0.0,61,0.00,,,0.35,,2013-09-29 00:52:00,
2013-09-28 21:22:00,52.0,47.0,30.06,NNW,327,0.0,0.0,82,0.00,,,0.35,,2013-09-29 02:22:00,
2013-09-28 21:43:00,51.0,46.0,30.07,NNW,327,0.0,0.0,84,0.00,,,0.35,,2013-09-29 02:43:00,
2013-09-28 22:23:00,50.0,46.0,30.09,NNW,329,0.0,0.0,86,0.00,,,0.35,,2013-09-29 03:23:00,
2013-09-28 22:55:00,49.0,46.0,30.10,NNW,329,0.0,0.0,88,0.00,,,0.35,,2013-09-29 03:55:00,
2013-09-28 23:02:00,-999.0,-99.9,30.11,NNW,329,0.0,0.0,-999,-99.99,,,-99.99,,2013-09-29 04:02:00,
2013-09-28 23:14:00,48.0,45.0,30.11,NNW,329,0.0,0.0,88,0.00,,,0.35,,2013-09-29 04:14:00,
2013-09-28 23:24:00,48.0,45.0,30.11,NNW,329,3.0,3.0,88,0.00,,,0.35,,2013-09-29 04:24:00,
2013-09-28 23:54:00,47.0,44.0,30.11,NNW,329,0.0,0.0,88,0.00,,,0.35,,2013-09-29 04:54:00,